This is the latest recevied weather packets stored in our database for station/object KE5WTH-14. If no packets are shown the sender has not sent any weather packets the latest 10 day(s).
| Time | Temp. | Humidity | Pressure | Rain* | Wind** | Luminosity | Snow |
|---|---|---|---|---|---|---|---|
| 1777564668 | 17.22° C | 78% | 1016.6 hPa | 0 mm | - | 162 W/m² | - |
| 1777564607 | 17.22° C | 78% | 1016.6 hPa | 0 mm | - | 132 W/m² | - |
| 1777564546 | 17.22° C | 78% | 1016.6 hPa | 0 mm | - | 120 W/m² | - |
| 1777564485 | 17.22° C | 78% | 1016.6 hPa | 0 mm | - | 113 W/m² | - |
| 1777564423 | 17.22° C | 78% | 1016.6 hPa | 0 mm | - | 109 W/m² | - |
| 1777564361 | 17.22° C | 78% | 1016.5 hPa | 0 mm | - | 107 W/m² | - |
| 1777564300 | 17.78° C | 78% | 1016.4 hPa | 0 mm | - | 107 W/m² | - |
| 1777564238 | 17.78° C | 78% | 1016.4 hPa | 0 mm | - | 113 W/m² | - |
| 1777564178 | 17.78° C | 78% | 1016.5 hPa | 0 mm | - | 118 W/m² | - |
| 1777564116 | 17.78° C | 78% | 1016.4 hPa | 0 mm | - | 127 W/m² | - |
| 1777564056 | 17.78° C | 78% | 1016.6 hPa | 0 mm | - | 146 W/m² | - |
| 1777563995 | 17.78° C | 78% | 1016.5 hPa | 0 mm | - | 146 W/m² | - |
| 1777563937 | 17.78° C | 77% | 1016.5 hPa | 0 mm | - | 151 W/m² | - |
| 1777563875 | 17.78° C | 77% | 1016.5 hPa | 0 mm | - | 158 W/m² | - |
| 1777563815 | 17.78° C | 77% | 1016.4 hPa | 0 mm | - | 165 W/m² | - |
| 1777563752 | 17.78° C | 77% | 1016.2 hPa | 0 mm | - | 172 W/m² | - |
| 1777563691 | 17.78° C | 77% | 1016 hPa | 0 mm | - | 188 W/m² | - |
| 1777563633 | 17.78° C | 77% | 1016 hPa | 0 mm | - | 200 W/m² | - |
| 1777563572 | 17.78° C | 77% | 1015.9 hPa | 0 mm | - | 218 W/m² | - |
| 1777563512 | 17.78° C | 77% | 1015.9 hPa | 0 mm | - | 230 W/m² | - |
| 1777563453 | 17.78° C | 77% | 1015.8 hPa | 0 mm | - | 230 W/m² | - |
| 1777563392 | 17.78° C | 77% | 1015.8 hPa | 0 mm | - | 248 W/m² | - |
| 1777563332 | 17.78° C | 77% | 1015.7 hPa | 0 mm | - | 269 W/m² | - |
| 1777563255 | 17.78° C | 77% | 1015.6 hPa | 0 mm | - | 276 W/m² | - |
| 1777563193 | 17.78° C | 77% | 1015.5 hPa | 0 mm | - | 267 W/m² | - |
* Rain latest hour (hover to see other rain measurements)
** Current wind speed in m/s (hover to see current wind gust speed)